Alturas, CA

7:48 AM PST on December 14, 2019 (GMT -0800)
Alturas Municipal

Weather History for KAAT - October, 2019

Change the Weather History Date:

Sunday, October 13, 2019

  Actual Average Record
Temperature  
Mean Temperature 45 °F 48 °F  
Max Temperature 66 °F 67 °F 86 °F (2015)
Min Temperature 23 °F 29 °F 14 °F (1976)
Degree Days  
Heating Degree Days 20 17  
Month to date heating degree days 275 199  
Since 1 July heating degree days 581 576  
Cooling Degree Days 0 0  
Month to date cooling degree days 0 0  
Year to date cooling degree days 217 156  
Moisture  
Dew Point 20 °F    
Average Humidity 46    
Maximum Humidity 78    
Minimum Humidity 16    
Precipitation  
Precipitation 0.00 in 0.02 in 1.75 in (1962)
Month to date precipitation 0.03 0.28  
Year to date precipitation 12.26 9.94  
Sea Level Pressure  
Sea Level Pressure 29.94 in    
Wind  
Wind Speed 2 mph ()    
Max Wind Speed 14 mph    
Max Gust Speed 18 mph    
Visibility 9.9 miles    
Events      
T = Trace of Precipitation, MM = Missing Value Source: Averaged Metar Reports

Daily Weather History Graph

Daily Weather History Graph

Search for Another Location

Airport or City:

Astronomy

Oct. 13, 2019 Rise Set
Actual Time 7:11 AM PDT 6:24 PM PDT
Civil Twilight 6:44 AM PDT 6:52 PM PDT
Nautical Twilight 6:11 AM PDT 7:24 PM PDT
Astronomical Twilight 5:39 AM PDT 7:56 PM PDT
Moon 6:49 PM PDT (10/13) 6:49 AM PDT (10/13)
Length of Visible Light 12h 08m
Length of Day
11h 12m
Full, 100% of the Moon is Illuminated
Oct 13
Full
Oct 13
Full
Oct 21
Last Quarter
Oct 27
New
Nov 4
First Quarter

Hourly Weather History & Observations

Time (PDT) Temp. Windchill Dew Point Humidity Pressure Visibility Wind Dir Wind Speed Gust Speed Precip Events Conditions
12:55 AM 30.0 °F - 19.9 °F 66% 29.93 in 10.0 mi Calm Calm - N/A   Clear
1:55 AM 30.0 °F - 19.0 °F 64% 29.93 in 10.0 mi Calm Calm - N/A   Clear
2:55 AM 28.0 °F - 18.0 °F 66% 29.93 in 10.0 mi Calm Calm - N/A   Clear
3:55 AM 27.0 °F - 18.0 °F 69% 29.93 in 10.0 mi Calm Calm - N/A   Clear
4:55 AM 25.0 °F - 17.1 °F 72% 29.93 in 9.0 mi Calm Calm - N/A   Clear
5:55 AM 26.1 °F - 19.0 °F 75% 29.95 in 10.0 mi Calm Calm - N/A   Clear
6:55 AM 25.0 °F - 18.0 °F 75% 29.97 in 10.0 mi Calm Calm - N/A   Clear
7:55 AM 26.1 °F - 19.9 °F 78% 29.98 in 10.0 mi Calm Calm - N/A   Clear
8:55 AM 30.0 °F - 21.9 °F 72% 29.99 in 10.0 mi Calm Calm - N/A   Clear
9:55 AM 43.0 °F - 21.9 °F 43% 29.98 in 10.0 mi Calm Calm - N/A   Clear
10:55 AM 53.1 °F - 23.0 °F 31% 29.95 in 10.0 mi Calm Calm - N/A   Clear
11:55 AM 57.9 °F - 21.9 °F 25% 29.93 in 10.0 mi South 3.5 mph - N/A   Clear
12:55 PM 62.1 °F - 23.0 °F 22% 29.91 in 10.0 mi Variable 3.5 mph - N/A   Clear
1:55 PM 64.0 °F - 21.9 °F 20% 29.88 in 10.0 mi West 9.2 mph - N/A   Clear
2:55 PM 66.0 °F - 23.0 °F 20% 29.87 in 10.0 mi West 9.2 mph - N/A   Clear
3:55 PM 66.0 °F - 19.9 °F 17% 29.87 in 10.0 mi WNW 10.4 mph 18.4 mph N/A   Clear
4:55 PM 64.9 °F - 18.0 °F 16% 29.88 in 10.0 mi WNW 8.1 mph - N/A   Clear
5:55 PM 61.0 °F - 16.0 °F 17% 29.90 in 10.0 mi West 5.8 mph - N/A   Clear
6:55 PM 53.1 °F - 16.0 °F 23% 29.93 in 10.0 mi West 6.9 mph - N/A   Clear
7:55 PM 48.0 °F - 19.0 °F 32% 29.96 in 10.0 mi WSW 8.1 mph - N/A   Clear
8:55 PM 44.1 °F 40.8 °F 19.9 °F 38% 29.98 in 9.0 mi ESE 5.8 mph - N/A   Clear
9:55 PM 39.9 °F 37.8 °F 21.0 °F 47% 29.98 in 10.0 mi East 3.5 mph - N/A   Clear
10:55 PM 35.1 °F - 21.0 °F 57% 29.98 in 10.0 mi Calm Calm - N/A   Clear
11:55 PM 28.0 °F - 18.0 °F 66% 30.00 in 10.0 mi Calm Calm - N/A   Clear